When you browse on this site, cookies collect data to enhance your experience and personalize the content and advertising you see.
Visit our Privacy Policy to learn more. By continuing to use the site, you agree to this use of cookies and data.
  • en Suisse
  • Liste des pays
  • À 7 jours
  • Température de l'eau
  • Carte météo
  • Widgets météo
  • user-avatar
    Se connecter

    Météo par heure à Mezhniki

    Ce jour, 18 Août, Dimanche

    Heure Température Précipitation Vent Pression Humidité
    00:00 +14°C° 1 mm 3 m/s 739 mmHg 98%
    01:00 +14°C° 1 mm 3 m/s 739 mmHg 98%
    02:00 +15°C° 1 mm 2 m/s 739 mmHg 99%
    03:00 +15°C° 1.1 mm 2 m/s 738 mmHg 99%
    04:00 +14°C° 1.1 mm 3 m/s 738 mmHg 98%
    05:00 +14°C° 1.1 mm 3 m/s 738 mmHg 98%
    06:00 +14°C° 1.5 mm 3 m/s 738 mmHg 98%
    07:00 +13°C° 1.5 mm 3 m/s 738 mmHg 98%
    08:00 +13°C° 1.5 mm 3 m/s 738 mmHg 97%
    09:00 +13°C° 1.2 mm 3 m/s 738 mmHg 97%
    10:00 +14°C° 1.2 mm 3 m/s 738 mmHg 96%
    11:00 +14°C° 1.2 mm 3 m/s 738 mmHg 96%
    12:00 +15°C° 0.3 mm 2 m/s 739 mmHg 95%
    13:00 +16°C° 0.3 mm 2 m/s 739 mmHg 94%
    14:00 +16°C° 0.3 mm 2 m/s 739 mmHg 93%
    15:00 +17°C° 0.1 mm 2 m/s 739 mmHg 92%
    16:00 +17°C° 0.1 mm 2 m/s 740 mmHg 91%
    17:00 +17°C° 0.1 mm 2 m/s 740 mmHg 90%
    18:00 +17°C° 0 mm 2 m/s 740 mmHg 91%
    19:00 +16°C° 0 mm 1 m/s 740 mmHg 93%
    20:00 +15°C° 0 mm 1 m/s 741 mmHg 94%
    21:00 +15°C° 0 mm 1 m/s 741 mmHg 95%
    22:00 +14°C° 0 mm 1 m/s 741 mmHg 95%
    23:00 +14°C° 0 mm 1 m/s 741 mmHg 96%

    Demain, 19 Août, Lundi

    Heure Température Précipitation Vent Pression Humidité
    00:00 +14°C° 0 mm 2 m/s 741 mmHg 96%
    01:00 +13°C° 0 mm 2 m/s 742 mmHg 96%
    02:00 +13°C° 0 mm 2 m/s 742 mmHg 95%
    03:00 +13°C° 0 mm 2 m/s 742 mmHg 95%
    04:00 +13°C° 0 mm 1 m/s 742 mmHg 95%
    05:00 +13°C° 0 mm 1 m/s 742 mmHg 95%
    06:00 +14°C° 0 mm 2 m/s 743 mmHg 92%
    07:00 +16°C° 0 mm 2 m/s 743 mmHg 89%
    08:00 +18°C° 0 mm 2 m/s 743 mmHg 85%
    09:00 +19°C° 0 mm 3 m/s 743 mmHg 80%
    10:00 +21°C° 0 mm 3 m/s 743 mmHg 74%
    11:00 +22°C° 0 mm 3 m/s 744 mmHg 68%
    12:00 +23°C° 0 mm 4 m/s 744 mmHg 67%
    13:00 +25°C° 0 mm 4 m/s 744 mmHg 66%
    14:00 +25°C° 0 mm 4 m/s 744 mmHg 65%
    15:00 +25°C° 0 mm 4 m/s 744 mmHg 68%
    16:00 +25°C° 0 mm 3 m/s 744 mmHg 72%
    17:00 +24°C° 0 mm 3 m/s 744 mmHg 75%
    18:00 +22°C° 0 mm 3 m/s 744 mmHg 80%
    19:00 +21°C° 0 mm 3 m/s 744 mmHg 85%
    20:00 +19°C° 0 mm 3 m/s 744 mmHg 90%
    21:00 +19°C° 0 mm 3 m/s 744 mmHg 91%
    22:00 +18°C° 0 mm 3 m/s 744 mmHg 91%
    23:00 +18°C° 0 mm 3 m/s 744 mmHg 92%

    Après-demain, 20 Août, Mardi

    Heure Température Précipitation Vent Pression Humidité
    00:00 +18°C° 0 mm 3 m/s 744 mmHg 93%
    01:00 +17°C° 0 mm 2 m/s 745 mmHg 94%
    02:00 +17°C° 0 mm 2 m/s 745 mmHg 96%
    03:00 +17°C° 0.4 mm 2 m/s 745 mmHg 96%
    04:00 +17°C° 0.4 mm 2 m/s 745 mmHg 97%
    05:00 +18°C° 0.4 mm 1 m/s 745 mmHg 97%
    06:00 +18°C° 0.2 mm 2 m/s 745 mmHg 95%
    07:00 +19°C° 0.2 mm 2 m/s 746 mmHg 94%
    08:00 +20°C° 0.2 mm 2 m/s 746 mmHg 92%
    09:00 +23°C° 0.1 mm 2 m/s 746 mmHg 88%
    10:00 +24°C° 0.1 mm 2 m/s 746 mmHg 83%
    11:00 +25°C° 0.1 mm 1 m/s 747 mmHg 79%
    12:00 +25°C° 0.1 mm 2 m/s 746 mmHg 79%
    13:00 +25°C° 0.1 mm 2 m/s 746 mmHg 79%
    14:00 +26°C° 0.1 mm 2 m/s 746 mmHg 79%
    15:00 +25°C° 0.7 mm 2 m/s 746 mmHg 82%
    16:00 +25°C° 0.7 mm 2 m/s 746 mmHg 85%
    17:00 +25°C° 0.7 mm 2 m/s 746 mmHg 87%
    18:00 +23°C° 0.7 mm 1 m/s 747 mmHg 89%
    19:00 +22°C° 0.7 mm 1 m/s 747 mmHg 92%
    20:00 +21°C° 0.7 mm 1 m/s 747 mmHg 94%
    21:00 +20°C° 0.1 mm 1 m/s 747 mmHg 94%
    22:00 +20°C° 0.1 mm 1 m/s 747 mmHg 94%
    23:00 +17°C° 0.1 mm 0 m/s 747 mmHg 95%

    21 Août, Mercredi

    Heure Température Précipitation Vent Pression Humidité
    00:00 +19°C° 0 mm 1 m/s 747 mmHg 95%
    01:00 +19°C° 0 mm 1 m/s 747 mmHg 95%
    02:00 +18°C° 0 mm 1 m/s 748 mmHg 95%
    03:00 +18°C° 0 mm 1 m/s 748 mmHg 95%
    04:00 +18°C° 0 mm 1 m/s 747 mmHg 95%
    05:00 +16°C° 0 mm 1 m/s 747 mmHg 95%
    06:00 +19°C° 0 mm 1 m/s 748 mmHg 92%
    07:00 +20°C° 0 mm 1 m/s 748 mmHg 89%
    08:00 +20°C° 0 mm 0 m/s 748 mmHg 87%
    09:00 +21°C° 0 mm 0 m/s 748 mmHg 81%
    10:00 +22°C° 0 mm 0 m/s 748 mmHg 76%
    11:00 +24°C° 0 mm 0 m/s 748 mmHg 71%
    12:00 +26°C° 0.6 mm 1 m/s 747 mmHg 71%
    13:00 +26°C° 0.6 mm 1 m/s 747 mmHg 71%
    14:00 +26°C° 0.6 mm 1 m/s 747 mmHg 72%
    15:00 +26°C° 1.1 mm 1 m/s 746 mmHg 77%
    16:00 +25°C° 1.1 mm 1 m/s 746 mmHg 82%
    17:00 +24°C° 1.1 mm 1 m/s 746 mmHg 87%
    18:00 +23°C° 0.2 mm 2 m/s 745 mmHg 89%
    19:00 +21°C° 0.2 mm 2 m/s 745 mmHg 90%
    20:00 +20°C° 0.2 mm 2 m/s 745 mmHg 92%
    21:00 +20°C° 0.9 mm 2 m/s 745 mmHg 93%
    22:00 +20°C° 0.9 mm 2 m/s 744 mmHg 95%
    23:00 +20°C° 0.9 mm 1 m/s 744 mmHg 96%

    22 Août, Jeudi

    Heure Température Précipitation Vent Pression Humidité
    00:00 +19°C° 0.7 mm 2 m/s 744 mmHg 96%
    01:00 +19°C° 0.7 mm 2 m/s 744 mmHg 96%
    02:00 +18°C° 0.7 mm 2 m/s 744 mmHg 97%
    03:00 +17°C° 0.4 mm 3 m/s 744 mmHg 96%
    04:00 +15°C° 0.4 mm 4 m/s 745 mmHg 96%
    05:00 +14°C° 0.4 mm 4 m/s 745 mmHg 96%
    06:00 +14°C° 0.1 mm 4 m/s 745 mmHg 94%
    07:00 +15°C° 0.1 mm 4 m/s 746 mmHg 93%
    08:00 +15°C° 0.1 mm 4 m/s 746 mmHg 92%
    09:00 +17°C° 0 mm 4 m/s 746 mmHg 85%
    10:00 +18°C° 0 mm 4 m/s 747 mmHg 78%
    11:00 +20°C° 0 mm 4 m/s 747 mmHg 70%
    12:00 +20°C° 0 mm 4 m/s 747 mmHg 67%
    13:00 +21°C° 0 mm 4 m/s 747 mmHg 63%
    14:00 +22°C° 0 mm 3 m/s 748 mmHg 60%
    15:00 +22°C° 0 mm 3 m/s 748 mmHg 64%
    16:00 +21°C° 0 mm 3 m/s 748 mmHg 67%
    17:00 +21°C° 0 mm 2 m/s 748 mmHg 71%
    18:00 +19°C° 0 mm 2 m/s 748 mmHg 75%
    19:00 +17°C° 0 mm 2 m/s 748 mmHg 78%
    20:00 +16°C° 0 mm 2 m/s 748 mmHg 82%
    21:00 +15°C° 0 mm 2 m/s 748 mmHg 84%
    22:00 +14°C° 0 mm 2 m/s 748 mmHg 86%
    23:00 +14°C° 0 mm 2 m/s 748 mmHg 88%

    23 Août, Vendredi

    Heure Température Précipitation Vent Pression Humidité
    00:00 +13°C° 0 mm 2 m/s 749 mmHg 90%
    01:00 +13°C° 0 mm 2 m/s 749 mmHg 91%
    02:00 +12°C° 0 mm 2 m/s 749 mmHg 93%
    03:00 +12°C° 0 mm 2 m/s 749 mmHg 93%
    04:00 +10°C° 0 mm 2 m/s 749 mmHg 93%
    05:00 +11°C° 0 mm 1 m/s 749 mmHg 94%
    06:00 +13°C° 0 mm 1 m/s 749 mmHg 88%
    07:00 +15°C° 0 mm 1 m/s 749 mmHg 81%
    08:00 +16°C° 0 mm 1 m/s 749 mmHg 75%
    09:00 +18°C° 0 mm 1 m/s 749 mmHg 70%
    10:00 +19°C° 0 mm 2 m/s 749 mmHg 65%
    11:00 +20°C° 0 mm 2 m/s 749 mmHg 60%
    12:00 +20°C° 0 mm 2 m/s 749 mmHg 60%
    13:00 +20°C° 0 mm 2 m/s 749 mmHg 61%
    14:00 +20°C° 0 mm 2 m/s 749 mmHg 61%
    15:00 +19°C° 0.1 mm 2 m/s 748 mmHg 67%
    16:00 +19°C° 0.1 mm 2 m/s 748 mmHg 73%
    17:00 +18°C° 0.1 mm 2 m/s 748 mmHg 79%
    18:00 +17°C° 0.1 mm 2 m/s 748 mmHg 82%
    19:00 +15°C° 0.1 mm 2 m/s 748 mmHg 86%
    20:00 +14°C° 0.1 mm 2 m/s 748 mmHg 90%
    21:00 +13°C° 0 mm 2 m/s 748 mmHg 91%
    22:00 +13°C° 0 mm 2 m/s 748 mmHg 92%
    23:00 +12°C° 0 mm 2 m/s 749 mmHg 94%
    Voir plus